Retour au catalogue

DELTA 1 DEB

ActifPO
NORAD 14910·DEBRIS·🇺🇸 United States

Lancé Mar 5, 1978 depuis Vandenberg Space Force Base

Loading…

Prochains Passages (prochaines 24 heures)

TLE

FraisSource: Space-Track

Époque: Sep 13, 2026, 21:40 UTC

1 14910U 78026GK  26256.90333463  .00000793  00000-0  34487-3 0  9998
2 14910  99.1214 240.7086 0014258 253.6889 174.5898 14.27080476204277

Suivez DELTA 1 DEB en temps réel avec AllMySat

Download on the App Store